#timestamp,LO_Frequency,Hit,StdDev 
1570399215.1,286046999.9,N
1570399235.8,286046999.3,N
1570399255.7,286046998.3,N
1570399275.5,286046998.5,N
1570399295.4,286046997.0,N
1570399315.2,286046999.5,N
1570399335.0,286046998.3,N
1570399335.9,286046998.3,N
1570399355.8,286047001.0,N
1570399375.6,286046998.3,N
1570399395.5,286046998.9,N
1570399415.3,286046998.9,N
1570399435.1,286046998.1,N
1570399455.9,286046998.1,N
1570399475.7,286046999.5,N
1570399495.5,286046999.0,N
1570399515.4,286047000.5,N
1570399535.2,286047002.4,N
1570399555.1,286047000.2,N
1570399556.0,286047000.2,N
1570399575.8,286047004.4,N
1570399595.6,286047003.9,N
1570399615.5,286047001.9,N
1570399635.3,286046999.9,N
1570399655.2,286047001.2,N
1570399675.9,286047000.0,N
1570399695.7,286047000.7,N
1570399715.6,286047000.7,N
1570399735.4,286046998.8,N
1570399755.2,286046996.9,N
1570399775.1,286046999.3,N
1570399776.0,286046999.3,N
1570399795.8,286046999.1,N
1570399815.7,286046998.1,N
1570399835.5,286046998.6,N
1570399855.3,286046998.2,N
1570399875.2,286047000.0,N
1570399895.0,286047001.0,N
1570399895.9,286047001.0,N
1570399915.8,286047001.2,N
1570399935.6,286046999.1,N
1570399955.4,286046998.9,N
1570399975.3,286047001.2,N
1570399995.1,286046998.4,N
1570400015.8,286047001.2,N
1570400035.7,286047001.0,N
1570400055.5,286047000.4,N
1570400075.4,286047002.1,N
1570400095.2,286046999.9,N
1570400115.0,286047002.5,N
1570400115.9,286047002.5,N
1570400135.8,286046999.9,N
1570400155.6,286047000.6,N
1570400175.5,286047000.9,N
1570400195.3,286047000.8,N
1570400215.1,286047001.0,N
1570400235.9,286047000.2,N
1570400255.7,286047000.0,N
1570400275.6,286047000.4,N
1570400295.4,286047002.3,N
1570400315.2,286046999.8,N
1570400335.1,286046999.8,N
1570400336.0,286046999.8,N
1570400355.8,286046999.9,N
1570400375.6,286046999.9,N
1570400395.5,286047002.0,N
1570400415.3,286047000.3,N
1570400435.2,286046999.8,N
1570400455.0,286047000.3,N
1570400455.9,286047000.3,N
1570400475.7,286047000.3,N
1570400495.6,286047000.5,N
1570400515.4,286047000.6,N
1570400535.3,286047000.1,N
1570400555.1,286047000.3,N
1570400556.0,286047000.3,N
1570400575.8,286047001.0,N
1570400595.7,286046999.0,N
1570400615.5,286046998.9,N
1570400635.4,286046998.3,N
1570400655.2,286046997.0,Y
1570400675.0,286046996.9,P
1570400675.9,286046996.9,N
1570400695.8,286046996.6,N
1570400715.6,286046996.5,N
1570400735.5,286046994.9,Y
1570400755.3,286046998.3,P
1570400775.1,286047000.8,N
1570400795.9,286047002.4,N
1570400815.7,286047001.3,N
1570400835.5,286047001.8,N
1570400855.4,286047002.0,N
1570400875.2,286047002.4,N
1570400895.1,286047001.9,N
1570400896.0,286047001.9,N
1570400915.8,286047001.4,N
1570400935.6,286047002.7,N
1570400955.5,286046999.9,N
1570400975.3,286047002.3,N
1570400995.2,286047002.5,N
1570401015.9,286047002.3,N
1570401035.7,286047002.6,N
1570401055.6,286047003.9,N
1570401075.4,286047003.6,N
1570401095.3,286047001.6,N
1570401115.1,286047002.2,N
1570401116.0,286047002.2,N
1570401135.8,286046999.7,N
1570401155.7,286047002.5,N
1570401175.5,286047002.1,N
1570401195.3,286047002.1,N
1570401215.2,286047001.7,N
1570401235.0,286047003.9,N
1570401235.9,286047003.9,N
1570401255.8,286047003.5,N
1570401275.6,286047003.4,N
1570401295.4,286047003.1,N
1570401315.3,286047004.1,Y
1570401335.1,286047000.6,P
1570401355.9,286047001.9,N
1570401375.7,286047000.8,N
1570401395.5,286046998.5,N
1570401415.4,286047000.0,N
1570401435.2,286047001.8,N
1570401455.0,286047001.6,N
1570401456.0,286047001.6,N
1570401475.8,286047003.4,Y
1570401495.6,286047004.1,P
1570401515.5,286047003.8,N
1570401535.3,286047002.4,N
1570401555.2,286047001.3,N
1570401575.9,286047004.0,Y
1570401595.7,286047000.4,P
1570401615.6,286047000.8,N
1570401635.4,286047000.9,N
1570401655.2,286047000.9,N
1570401675.1,286047002.6,Y
1570401676.0,286047002.6,P
1570401695.8,286047000.3,N
1570401715.7,286047000.4,N
1570401735.5,286047000.4,N
1570401755.3,286047000.5,N
1570401775.2,286047000.4,N
1570401795.0,286046998.3,N
1570401795.9,286046998.3,N
1570401815.8,286047000.2,N
1570401835.6,286046997.0,N
1570401855.4,286046997.1,N
1570401875.3,286046999.6,N
1570401895.1,286046998.6,N
1570401915.8,286046997.0,N
1570401935.7,286046998.7,N
1570401955.5,286046998.1,N
1570401975.4,286046998.1,N
1570401995.2,286046998.2,N
1570402015.0,286046998.3,N
1570402015.9,286046998.3,N
1570402035.8,286046998.5,N
1570402055.6,286047000.8,N
1570402075.5,286047000.8,N
1570402095.3,286047002.7,N
1570402115.1,286047002.0,N
1570402135.9,286047001.5,N
1570402155.7,286047011.9,Y
1570402175.5,286047001.8,P
1570402195.4,286047003.8,P
1570402215.2,286047002.4,N
1570402235.1,286047000.4,N
1570402236.0,286047000.4,N
1570402255.8,286046999.4,N
1570402275.6,286046998.6,N
1570402295.5,286046999.6,N
1570402315.3,286046998.5,N
1570402335.2,286046998.3,N
1570402355.9,286047000.3,N
1570402375.7,286047000.6,N
1570402395.6,286046998.5,N
1570402415.4,286046997.0,N
1570402435.2,286046999.3,N
1570402455.1,286046999.6,N
1570402456.0,286046999.6,N
1570402475.8,286046998.7,N
1570402495.7,286046999.5,N
1570402515.5,286046997.8,N
1570402535.3,286046997.9,N
1570402555.2,286046995.5,N
1570402575.0,286046997.5,N
1570402575.9,286046997.5,N
1570402595.8,286046997.2,N
1570402615.6,286046997.3,N
1570402635.4,286046995.3,N
1570402655.3,286046998.0,N
1570402675.1,286046994.9,N
1570402695.9,286046996.0,N
1570402715.7,286046995.6,N
1570402735.5,286046997.9,N
1570402755.4,286046996.7,N
1570402775.2,286046997.6,N
1570402795.0,286046997.1,N
1570402795.9,286046997.1,N
